This is the latest recevied weather packets stored in our database for station/object W0VI. If no packets are shown the sender has not sent any weather packets the latest 10 day(s).
| Time | Temp. | Humidity | Pressure | Rain* | Wind** | Luminosity | Snow |
|---|---|---|---|---|---|---|---|
| 1777730040 | 9.44° C | 51% | 1018.6 hPa | 0 mm | - | 328 W/m² | - |
| 1777729736 | 9.44° C | 51% | 1018.6 hPa | 0 mm | - | 305 W/m² | - |
| 1777729434 | 9.44° C | 52% | 1018.7 hPa | 0 mm | - | 284 W/m² | - |
| 1777729130 | 8.89° C | 53% | 1018.7 hPa | 0 mm | - | 265 W/m² | - |
| 1777728827 | 8.89° C | 54% | 1018.6 hPa | 0 mm | - | 252 W/m² | - |
| 1777728524 | 8.89° C | 54% | 1018.8 hPa | 0 mm | - | 237 W/m² | - |
| 1777728221 | 8.33° C | 55% | 1018.8 hPa | 0 mm | - | 242 W/m² | - |
| 1777727918 | 7.78° C | 57% | 1018.7 hPa | 0 mm | - | 228 W/m² | - |
| 1777727615 | 7.78° C | 57% | 1018.8 hPa | 0 mm | - | 201 W/m² | - |
| 1777727312 | 7.22° C | 59% | 1018.8 hPa | 0 mm | - | 188 W/m² | - |
| 1777727010 | 6.67° C | 60% | 1018.8 hPa | 0 mm | - | 180 W/m² | - |
| 1777726706 | 6.67° C | 62% | 1018.8 hPa | 0 mm | - | 128 W/m² | - |
| 1777726404 | 6.11° C | 63% | 1018.9 hPa | 0 mm | - | 92 W/m² | - |
| 1777726100 | 5.56° C | 62% | 1018.9 hPa | 0 mm | - | 63 W/m² | - |
| 1777725797 | 5.56° C | 63% | 1019 hPa | 0 mm | - | 116 W/m² | - |
| 1777725495 | 5.56° C | 63% | 1018.8 hPa | 0 mm | - | 71 W/m² | - |
| 1777725192 | 5.56° C | 64% | 1019 hPa | 0 mm | - | 104 W/m² | - |
| 1777724889 | 5° C | 65% | 1019 hPa | 0 mm | - | 80 W/m² | - |
| 1777724585 | 5° C | 65% | 1018.7 hPa | 0 mm | - | 62 W/m² | - |
| 1777724283 | 4.44° C | 66% | 1018.7 hPa | 0 mm | - | 60 W/m² | - |
| 1777723981 | 4.44° C | 67% | 1018.9 hPa | 0 mm | - | 50 W/m² | - |
| 1777723678 | 3.89° C | 68% | 1018.7 hPa | 0 mm | - | 42 W/m² | - |
| 1777723374 | 3.89° C | 69% | 1018.8 hPa | 0 mm | - | 31 W/m² | - |
| 1777723072 | 3.33° C | 70% | 1018.7 hPa | 0 mm | - | 34 W/m² | - |
| 1777722769 | 3.33° C | 70% | 1018.7 hPa | 0 mm | - | 28 W/m² | - |
* Rain latest hour (hover to see other rain measurements)
** Current wind speed in m/s (hover to see current wind gust speed)